Location: Lafig�re
(44.4503°N, 4.0357°E)
Time: 16:20:38
(UTC+00:00)

BlueWalker 3 - Pass Details

Date: 06 December 2022
Orbit: 499 x 517 km, 53.2° (Epoch: 01 February)

Event Time Altitude Azimuth Distance (km) Brightness Sun altitude
Rises 18:04:36 0° 305° (NW) 2,627 6.2 -20.7°
Reaches altitude 10° 18:06:53 10° 312° (NW) 1,735 5.1 -21.1°
Enters shadow 18:09:56 38° 355° (N) 788 2.8 -21.6°
